This demonstration page uses our WeatherBlox Daily Observations layout. Learn more.

Left ArrowRight Arrow

44.8408, -93.29828

Hourly Observations for November 28, 2020

Temp ( °F °C ) Dew Point ( °F °C ) Humidity (%) Winds ( mph kmh ) Pressure ( in mb ) Visibility ( mi km ) Precip ( " mm )
12:53 am 00:53 Clear 33 0.6 25 -3.9 72 72 SW 7 11 30.06 1018 10 16 0.00 0.00
1:53 am 01:53 Clear 34 1.1 25 -3.9 70 70 SW 7 11 30.03 1017 10 16 0.00 0.00
2:53 am 02:53 Clear 34 1.1 25 -3.9 70 70 VRB 3 6 30.03 1017 10 16 0.00 0.00
3:53 am 03:53 Clear 34 1.1 25 -3.9 70 70 SW 8 13 30.00 1016 10 16 0.00 0.00
4:53 am 04:53 Clear 34 1.1 25 -3.9 70 70 SW 6 9 30.00 1016 10 16 0.00 0.00
5:53 am 05:53 Clear 33 0.6 24 -4.4 70 70 SW 7 11 29.98 1015 10 16 0.00 0.00
6:53 am 06:53 Mostly Clear 34 1.1 24 -4.4 67 67 SW 7 11 29.97 1015 10 16 0.00 0.00
7:53 am 07:53 Mostly Sunny 33 0.6 24 -4.4 70 70 SW 6 9 29.98 1015 10 16 0.00 0.00
8:53 am 08:53 Mostly Sunny 35 1.7 24 -4.4 64 64 SW 7 11 29.98 1015 10 16 0.00 0.00
9:53 am 09:53 Mostly Sunny 39 3.9 24 -4.4 55 55 WSW 7 11 29.97 1015 10 16 0.00 0.00
10:53 am 10:53 Mostly Sunny 43 6.1 24 -4.4 47 47 WSW 7 11 29.96 1015 10 16 0.00 0.00
11:53 am 11:53 Sunny 44 6.7 25 -3.9 47 47 SW 7 11 29.93 1014 10 16 0.00 0.00
12:53 pm 12:53 Sunny 47 8.3 26 -3.3 44 44 WSW 8 13 29.91 1013 10 16 0.00 0.00
1:53 pm 13:53 Sunny 49 9.4 27 -2.8 43 43 SW 9 15 29.90 1012 10 16 0.00 0.00
2:53 pm 14:53 Sunny 50 10 28 -2.2 43 43 WSW 12 19 29.89 1012 10 16 0.00 0.00
3:53 pm 15:53 Mostly Sunny 50 10 29 -1.7 44 44 WSW 7 11 29.88 1012 10 16 0.00 0.00
4:53 pm 16:53 Mostly Clear 48 8.9 30 -1.1 50 50 SSW 5 7 29.88 1012 10 16 0.00 0.00
5:53 pm 17:53 Mostly Clear 46 7.8 30 -1.1 54 54 SSW 3 6 29.89 1012 10 16 0.00 0.00
6:53 pm 18:53 Clear 44 6.7 30 -1.1 58 58 SSW 6 9 29.88 1012 10 16 0.00 0.00
7:53 pm 19:53 Clear 43 6.1 31 -0.6 63 63 SW 9 15 29.88 1012 10 16 0.00 0.00
8:53 pm 20:53 Clear 43 6.1 30 -1.1 60 60 SW 10 17 29.89 1012 10 16 0.00 0.00
9:53 pm 21:53 Mostly Clear 41 5 30 -1.1 65 65 SW 12 19 29.90 1013 10 16 0.00 0.00
10:53 pm 22:53 Mostly Clear 40 4.4 29 -1.7 65 65 WSW 12 19 29.89 1012 10 16 0.00 0.00
11:53 pm 23:53 Mostly Clear 39 3.9 29 -1.7 67 67 WSW 7 11 29.89 1012 10 16 0.00 0.00

Powered by AerisWeather